{"data":{"norad_id":67125,"epoch":"2026-05-25T04:10:35.662368Z","epoch_age_seconds":53292,"freshness":"FRESH","line1":"1 67125U 25299Z   26145.17402387  .00016689  00000+0  61445-3 0  9990","line2":"2 67125  43.0015  97.0329 0000937 267.8771  92.1974 15.27588075 24818","mean_motion":15.27588075,"eccentricity":9.37e-5,"inclination_deg":43.0015,"raan_deg":97.0329,"arg_perigee_deg":267.8771,"mean_anomaly_deg":92.1974,"bstar":0.00061445,"rev_number":2481,"period_min":94.266250409162,"perigee_km":482.38202581961,"apogee_km":483.66780756279,"semimajor_km":6861.1619166912,"source":"CELESTRAK","updated_at":"2026-05-25T13:38:21.477764Z"}}